Location: Devore Heights
(34.2372°N, 117.4156°W)
Time: 23:51:01
(UTC+00:00)

Transit 4A - Pass Details

Date: 13 September 2024
Orbit: 864 x 978 km, 66.8° (Epoch: 13 October)

Event Time Altitude Azimuth Distance (km) Brightness Sun altitude
Rises 20:23:26 0° 333° (NNW) 3,613 10.8 57.9°
Reaches altitude 10° 20:25:57 10° 332° (NNW) 2,680 10.2 57.7°
Maximum altitude 20:32:14 85° 246° (WSW) 975 9.4 57.2°
Drops below altitude 10° 20:38:37 10° 158° (SSE) 2,713 10.8 56.7°
Sets 20:41:10 0° 157° (SSE) 3,660 11.3 56.5°
